Weather History for PAWD - February, 2013

Change the Weather History Date:

Thursday, February 7, 2013

  Actual Average Record
Temperature  
Mean Temperature 28 °F -  
Max Temperature 35 °F 33 °F 49 °F (1982)
Min Temperature 21 °F 22 °F 2 °F (1990)
Degree Days  
Heating Degree Days 37    
Moisture  
Dew Point 28 °F    
Average Humidity 90    
Maximum Humidity 100    
Minimum Humidity 80    
Precipitation  
Precipitation 0.15 in - - ()
Sea Level Pressure  
Sea Level Pressure 29.43 in    
Wind  
Wind Speed 3 mph (SW)    
Max Wind Speed 20 mph    
Max Gust Speed 24 mph    
Visibility 4 miles    
Events Fog , Snow    
Averages and records for this station are not official NWS values.
T = Trace of Precipitation, MM = Missing Value Source: NWS Daily Summary

Daily Weather History Graph

Daily Weather History Graph

Search for Another Location

Airport or City:

Trip Planner

Search our weather history database for the weather conditions in past years. The results will help you decide how hot, cold, wet, or windy it might be!

Date:

Astronomy

Feb. 07, 2013 Rise Set
Actual Time 8:56 AM AKST 5:28 PM AKST
Civil Twilight 8:10 AM AKST 6:14 PM AKST
Nautical Twilight 7:20 AM AKST 7:04 PM AKST
Astronomical Twilight 6:32 AM AKST 7:52 PM AKST
Moon 7:09 AM AKST (2/7) 2:41 PM AKST (2/7)
Length of Visible Light 10h 04m
Length of Day
8h 32m
Waning Crescent, 8% of the Moon is Illuminated
Feb 7
Waning Crescent
Feb 9
New
Feb 17
First Quarter
Feb 25
Full
Mar 4
Last Quarter

Hourly Weather History & Observations

Time (AKST) Temp. Windchill Dew Point Humidity Pressure Visibility Wind Dir Wind Speed Gust Speed Precip Events Conditions
12:53 AM 25.0 °F 20.7 °F 21.0 °F 85% 29.61 in 10.0 mi NNW 3.5 mph - N/A   Clear
1:53 AM 21.9 °F - 19.9 °F 92% 29.60 in 10.0 mi Calm Calm - N/A   Partly Cloudy
2:46 AM 24.8 °F - 21.2 °F 86% 29.59 in 10.0 mi Calm Calm - N/A   Overcast
2:53 AM 25.0 °F 19.3 °F 21.9 °F 88% 29.58 in 10.0 mi North 4.6 mph - N/A   Overcast
3:09 AM 26.6 °F - 21.2 °F 80% 29.57 in 10.0 mi Calm Calm - N/A   Overcast
3:35 AM 26.6 °F 22.6 °F 21.2 °F 80% 29.57 in 10.0 mi East 3.5 mph - N/A   Overcast
3:53 AM 25.0 °F 20.7 °F 23.0 °F 92% 29.57 in 10.0 mi West 3.5 mph - N/A   Overcast
4:53 AM 26.1 °F - 23.0 °F 88% 29.55 in 10.0 mi Calm Calm - N/A   Overcast
5:53 AM 27.0 °F - 23.0 °F 85% 29.54 in 10.0 mi Calm Calm - 0.00 in Snow Light Snow
6:29 AM 26.6 °F - 24.8 °F 93% 29.53 in 2.0 mi Calm Calm - 0.00 in Snow Light Snow
6:36 AM 26.6 °F - 24.8 °F 93% 29.53 in 1.5 mi Calm Calm - 0.00 in Snow Light Snow
6:43 AM 26.6 °F - 24.8 °F 93% 29.53 in 0.8 mi Calm Calm - 0.00 in Snow Light Snow
6:51 AM 26.6 °F - 24.8 °F 93% 29.53 in 0.8 mi Calm Calm - 0.00 in Snow Light Snow
6:53 AM 27.0 °F - 25.0 °F 92% 29.53 in 0.8 mi Calm Calm - 0.00 in Snow Light Snow
6:57 AM 26.6 °F - 24.8 °F 93% 29.53 in 1.0 mi Calm Calm - 0.00 in Snow Light Snow
7:06 AM 26.6 °F - 24.8 °F 93% 29.52 in 2.0 mi Calm Calm - 0.00 in Snow Light Snow
7:20 AM 26.6 °F - 26.6 °F 100% 29.52 in 1.2 mi Calm Calm - 0.00 in Snow Light Snow
7:27 AM 26.6 °F - 26.6 °F 100% 29.52 in 1.0 mi Calm Calm - 0.00 in Snow Light Snow
7:35 AM 26.6 °F - 26.6 °F 100% 29.51 in 0.5 mi Calm Calm - 0.00 in Fog , Snow Snow
7:53 AM 28.0 °F - 26.1 °F 92% 29.51 in 0.8 mi Calm Calm - 0.00 in Snow Light Snow
8:05 AM 28.4 °F - 26.6 °F 93% 29.50 in 1.2 mi Calm Calm - 0.00 in Snow Light Snow
8:20 AM 28.4 °F - 26.6 °F 93% 29.50 in 1.0 mi Calm Calm - 0.00 in Snow Light Snow
8:40 AM 28.4 °F - 26.6 °F 93% 29.49 in 1.2 mi Calm Calm - 0.00 in Snow Light Snow
8:51 AM 28.4 °F - 28.4 °F 100% 29.49 in 1.2 mi Calm Calm - 0.00 in Snow Light Snow
8:53 AM 28.9 °F - 28.0 °F 96% 29.49 in 1.2 mi Calm Calm - 0.00 in Snow Light Snow
10:53 AM 34.0 °F 23.8 °F 30.9 °F 89% 29.44 in 1.8 mi SSW 16.1 mph 19.6 mph 0.00 in Snow Light Snow
11:06 AM 35.6 °F 26.2 °F 30.2 °F 81% 29.43 in 2.5 mi South 15.0 mph 21.9 mph 0.00 in Snow Light Snow
11:17 AM 35.6 °F 24.8 °F 30.2 °F 81% 29.42 in 3.0 mi SSW 19.6 mph - 0.00 in Snow Light Snow
11:35 AM 35.6 °F 25.9 °F 30.2 °F 81% 29.41 in 2.5 mi SSW 16.1 mph 24.2 mph 0.00 in Snow Light Snow
11:48 AM 35.6 °F 27.1 °F 30.2 °F 81% 29.40 in 4.0 mi SSW 12.7 mph - 0.01 in Snow Light Snow
11:53 AM 35.1 °F 27.9 °F 30.0 °F 82% 29.40 in 5.0 mi SSW 9.2 mph - 0.01 in Snow Light Snow
12:18 PM 35.6 °F 27.5 °F 30.2 °F 81% 29.40 in 2.5 mi SSW 11.5 mph - 0.00 in Snow Light Snow
12:30 PM 35.6 °F 28.6 °F 30.2 °F 81% 29.40 in 4.0 mi South 9.2 mph - 0.01 in Snow Light Snow
12:40 PM 35.6 °F 29.9 °F 30.2 °F 81% 29.39 in 2.5 mi South 6.9 mph - 0.01 in Snow Light Snow
12:53 PM 35.1 °F 31.0 °F 30.0 °F 82% 29.37 in 1.8 mi South 4.6 mph - 0.02 in Snow Light Snow
1:25 PM 33.8 °F 28.6 °F 32.0 °F 93% 29.35 in 0.8 mi Variable 5.8 mph - 0.01 in Snow Light Snow
1:40 PM 33.8 °F - 32.0 °F 93% 29.35 in 1.0 mi Calm Calm - 0.02 in Snow Light Snow
1:51 PM 33.8 °F - 32.0 °F 93% 29.34 in 0.8 mi Calm Calm - 0.02 in Snow Light Snow
1:53 PM 34.0 °F - 32.0 °F 92% 29.34 in 0.8 mi Calm Calm - 0.02 in Snow Light Snow
2:15 PM 33.8 °F - 32.0 °F 93% 29.32 in 1.0 mi Calm Calm - 0.02 in Snow Light Snow
2:19 PM 33.8 °F - 32.0 °F 93% 29.32 in 1.2 mi Calm Calm - 0.02 in Snow Light Snow
2:45 PM 33.8 °F - 32.0 °F 93% 29.31 in 1.2 mi Calm Calm - 0.03 in Snow Light Snow
2:53 PM 33.1 °F - 33.1 °F 100% 29.31 in 1.0 mi Calm Calm - 0.03 in Snow Light Snow
3:09 PM 33.8 °F - 32.0 °F 93% 29.32 in 1.5 mi Calm Calm - 0.01 in Snow Light Snow
3:31 PM 33.8 °F - 32.0 °F 93% 29.32 in 0.8 mi Calm Calm - 0.02 in Snow Light Snow
3:51 PM 33.8 °F - 32.0 °F 93% 29.32 in 1.0 mi Calm Calm - 0.02 in Snow Light Snow
3:53 PM 33.1 °F - 32.0 °F 96% 29.32 in 1.0 mi Calm Calm - 0.02 in Snow Light Snow
4:03 PM 33.8 °F - 32.0 °F 93% 29.32 in 0.8 mi Calm Calm - 0.01 in Snow Light Snow
4:12 PM 33.8 °F - 32.0 °F 93% 29.32 in 1.2 mi Calm Calm - 0.01 in Snow Light Snow
4:43 PM 33.8 °F 30.8 °F 32.0 °F 93% 29.31 in 2.0 mi NNW 3.5 mph - 0.02 in Snow Light Snow
4:53 PM 33.1 °F 30.0 °F 32.0 °F 96% 29.31 in 2.5 mi North 3.5 mph - 0.03 in Snow Light Snow
5:01 PM 33.8 °F 29.6 °F 32.0 °F 93% 29.31 in 5.0 mi ENE 4.6 mph - 0.00 in Snow Light Snow
5:53 PM 35.1 °F 26.9 °F 30.0 °F 82% 29.28 in 10.0 mi North 11.5 mph - 0.01 in   Overcast
6:53 PM 34.0 °F 29.8 °F 30.0 °F 85% 29.29 in 10.0 mi North 4.6 mph - 0.01 in   Overcast
7:53 PM 33.1 °F - 30.0 °F 89% 29.31 in 10.0 mi Calm Calm - N/A   Overcast
8:53 PM 35.1 °F - 30.0 °F 82% 29.32 in 10.0 mi Calm Calm - N/A   Overcast
9:53 PM 34.0 °F 31.0 °F 30.9 °F 89% 29.35 in 10.0 mi South 3.5 mph - N/A   Overcast
10:53 PM 30.0 °F - 28.9 °F 96% 29.35 in 10.0 mi Calm Calm - N/A   Scattered Clouds
11:53 PM 32.0 °F - 30.0 °F 92% 29.37 in 10.0 mi Calm Calm - N/A   Overcast